Flag for Germany Weather past 2 weeks in Herrenberg, Baden-Württemberg, Germany

Now
75 °F

Passing clouds.


Feels Like: 77 °F
Forecast: 58 / 87 °F
Wind: 7 mph from Northeast

Location: Stuttgart-Echterdingen

Current Time: Aug 28, 2015 at 7:51:16 PM

Latest Report: Aug 28, 2015 at 7:20 PM


Visibility: N/A

Pressure: 30.12 "Hg

Humidity: 65%

Dew point: 63 °F

Location of HerrenbergLocation

Historic Weather in Herrenberg — Graph

°F

Herrenberg temperature yesterday

Maximum temperature yesterday: 88 °F (at 4:20 PM)
Minimum temperature yesterday: 55 °F (at 6:20 AM)
Average temperature yesterday: 74 °F

Past Weeks' High & Low Weather Summary

 TemperatureHumidityPressure
High91 °F (Aug 13, 6:20 PM)100% (Aug 15, 12:20 AM)30.27 "Hg (Aug 15, 12:20 AM)
Low48 °F (Aug 18, 5:20 AM)24% (Aug 13, 6:50 PM)29.71 "Hg (Aug 24, 1:50 PM)
Average65 °F71%29.99 "Hg
* Reported Aug 13 6:20 PM — Aug 28 6:50 PM, Herrenberg, Weather by CustomWeather, © 2015

Note: Actual official high and low records may vary slightly from our data, if they occured in-between our weather recording intervals... More about our weather records

Advertising

Herrenberg weather history for previous 24 hours

 ConditionsComfort  
Time TempWeatherWind HumidityBarometerVisibility
6:50 PM
Fri, Aug 28
77 °FPassing clouds.6 mph61%30.12 "HgN/A
6:20 PM77 °FPassing clouds.8 mph65%30.12 "HgN/A
5:50 PM77 °FPassing clouds.10 mph65%30.12 "HgN/A
5:20 PM79 °FPassing clouds.6 mph58%30.09 "HgN/A
4:50 PM79 °FPassing clouds.7 mph58%30.09 "HgN/A
4:20 PM79 °FBroken clouds.7 mph58%30.09 "HgN/A
3:50 PM79 °FPartly sunny.3 mph54%30.12 "HgN/A
3:20 PM77 °FPartly sunny.6 mph57%30.09 "HgN/A
2:50 PM77 °FPartly sunny.7 mph57%30.09 "HgN/A
2:20 PM77 °FPartly sunny.8 mph61%30.09 "HgN/A
1:50 PM77 °FPartly sunny.6 mph65%30.09 "HgN/A
1:20 PM75 °FPartly sunny.8 mph69%30.09 "HgN/A
12:50 PM75 °FPartly sunny.9 mph65%30.09 "HgN/A
12:20 PM79 °FPartly sunny.7 mph51%30.09 "HgN/A
11:50 AM77 °FPartly sunny.3 mph54%30.07 "HgN/A
11:20 AM77 °FBroken clouds.5 mph54%30.07 "HgN/A
10:50 AM77 °FPartly sunny.5 mph54%30.07 "HgN/A
10:20 AM75 °FPartly sunny.2 mph61%30.07 "HgN/A
9:50 AM73 °FPartly sunny.2 mph65%30.04 "HgN/A
9:20 AM72 °FPartly sunny.1 mph73%30.04 "HgN/A
8:50 AM70 °FBroken clouds.2 mph78%30.04 "HgN/A
8:20 AM68 °FSunny.2 mph83%30.04 "Hg10 mi
7:50 AM68 °FSunny.1 mph83%30.01 "Hg10 mi
7:20 AM68 °FPartly cloudy.No wind83%30.01 "HgN/A
6:50 AM68 °FPassing clouds.2 mph83%30.01 "HgN/A
6:20 AM68 °FClear.2 mph83%30.01 "Hg10 mi
5:50 AM68 °FClear.2 mph83%30.01 "Hg10 mi
5:20 AM68 °FLight rain. Clear.2 mph83%30.01 "HgN/A
4:50 AM68 °FClear.2 mph83%30.01 "Hg10 mi
4:20 AM68 °FClear.2 mph83%30.01 "Hg10 mi
3:50 AM70 °FPassing clouds.3 mph78%30.01 "HgN/A
3:20 AM70 °FPassing clouds.5 mph78%29.98 "HgN/A
2:50 AM70 °FClear.9 mph73%29.98 "Hg10 mi
2:20 AM72 °FPassing clouds.13 mph69%29.95 "HgN/A
1:50 AM73 °FClear.15 mph61%29.95 "Hg10 mi
1:20 AM73 °FPassing clouds.8 mph53%29.92 "HgN/A
12:50 AM75 °FPassing clouds.6 mph47%29.89 "HgN/A
12:20 AM75 °FPassing clouds.5 mph47%29.89 "HgN/A
11:50 PM
Thu, Aug 27
77 °FClear.1 mph42%29.89 "Hg10 mi
11:20 PM75 °FClear.2 mph47%29.89 "Hg10 mi
10:50 PM75 °FClear.2 mph47%29.89 "Hg10 mi
10:20 PM75 °FPassing clouds.5 mph47%29.89 "HgN/A
9:50 PM73 °FPassing clouds.5 mph53%29.89 "HgN/A
9:20 PM77 °FPassing clouds.3 mph44%29.86 "HgN/A
8:50 PM79 °FPassing clouds.3 mph42%29.86 "HgN/A
8:20 PM81 °FPassing clouds.5 mph37%29.86 "HgN/A
7:50 PM82 °FPassing clouds.7 mph35%29.86 "HgN/A
7:20 PM84 °FPassing clouds.6 mph33%29.86 "HgN/A
Weather by CustomWeather, © 2015

See weather overviewHow to use our weather pages